• MPC Preparation (Info)

  • MPEC 2016-O52 : 2014 OA394

    The following Minor Planet Electronic Circular may be linked-to from your own Web pages, but must not otherwise be redistributed electronically.

    A form allowing access to any MPEC is at the bottom of this page.


    Read MPEC 2016-O51 Read MPEC 2016-O53


    M.P.E.C. 2016-O52                                Issued 2016 July 16, 21:37 UT
    
         The Minor Planet Electronic Circulars contain information on unusual
             minor planets and routine data on comets.  They are published
        on behalf of Division F of the International Astronomical Union by the
              Minor Planet Center, Smithsonian Astrophysical Observatory,
                              Cambridge, MA 02138, U.S.A.
    
                 Prepared using the Tamkin Foundation Computer Network
    
                                  MPC@CFA.HARVARD.EDU
                URL https://www.minorplanetcenter.net/    ISSN 1523-6714
    
                                      2014 OA394
    
    Observations:
         K14Od4A  C2012 08 17.43337 21 54 37.182-15 06 16.16         22.2 wLEO052F51
         K14Od4A  C2012 08 17.44764 21 54 37.116-15 06 16.45         22.2 wLEO052F51
         K14Od4A  C2012 08 17.46193 21 54 37.008-15 06 16.87         22.3 wLEO052F51
         K14Od4A  C2012 08 17.47619 21 54 36.933-15 06 17.29         22.4 wLEO052F51
         K14Od4A  C2013 08 31.40255 21 59 55.382-14 30 40.29         22.5 wLEO052F51
         K14Od4A  C2013 08 31.41706 21 59 55.289-14 30 40.99         22.4 wLEO052F51
         K14Od4A  C2013 08 31.43153 21 59 55.234-14 30 41.28         22.5 wLEO052F51
         K14Od4A* C2014 07 25.52181 22 09 18.338-13 32 59.38         22.5 wLEO052F51
         K14Od4A  C2014 07 25.53391 22 09 18.305-13 32 59.63         22.6 wLEO052F51
         K14Od4A  C2014 07 25.55815 22 09 18.177-13 32 59.89         22.6 wLEO052F51
         K14Od4A  C2014 08 03.47352 22 08 38.155-13 36 40.98         22.6 wLEO052F51
         K14Od4A  C2014 08 03.48700 22 08 38.079-13 36 41.49         22.6 wLEO052F51
         K14Od4A  C2014 08 03.50042 22 08 38.018-13 36 41.72         22.9 wLEO052F51
         K14Od4A  C2014 09 19.28840 22 04 51.667-13 56 03.55         22.7 wLEO052F51
         K14Od4A  C2014 09 19.30068 22 04 51.630-13 56 03.72         22.2 wLEO052F51
         K14Od4A  C2014 09 19.31296 22 04 51.569-13 56 04.06         22.6 wLEO052F51
         K14Od4A  C2014 09 19.32527 22 04 51.513-13 56 04.54         22.4 wLEO052F51
         K14Od4A  C2015 07 12.50092 22 16 27.372-12 45 39.06         22.7 wLEO052F51
         K14Od4A  C2015 07 12.52229 22 16 27.286-12 45 39.90         22.6 wLEO052F51
         K14Od4A  C2015 07 12.53435 22 16 27.252-12 45 40.06         22.5 wLEO052F51
    
    Observer details:
    F51 Pan-STARRS 1, Haleakala.  Observers B. Gibson, T. Goggia, N. Primak,
        A. Schultz, M. Willman.  Measurers K. Chambers, S. Chastel, Y.-T. Chen,
        L. Denneau, H. Flewelling, M. Holman, M. Huber, R. Jedicke, M. Lackner,
        E. Lilly, H.-W. Lin, E. Magnier, M. Micheli, M. Payne, P. Veres,
        R. Wainscoat, C. Waters, R. Weryk.  1.8-m Ritchey-Chretien + CCD.
    
    Orbital elements:
    2014 OA394
    Epoch 2016 July 31.0 TT = JDT 2457600.5                 MPC
    M  10.83344              (2000.0)            P               Q
    n   0.00311623     Peri.  320.59053     +0.72248211     +0.69136554
    a  46.4211976      Node   355.65768     -0.61354062     +0.63726306
    e   0.1804231      Incl.    4.37004     -0.31872794     +0.34045483
    P 316              H    6.5           G   0.15           U   3
    Residuals in seconds of arc
    120817 F51  0.1+  0.1+    140725 F51  0.1-  0.0     140919 F51  0.1+  0.1+
    120817 F51  0.2+  0.1+    140725 F51  0.2+  0.0     140919 F51  0.0   0.0
    120817 F51  0.3-  0.1+    140725 F51  0.1-  0.3+    140919 F51  0.0   0.2-
    120817 F51  0.3-  0.0     140803 F51  0.0   0.0     150712 F51  0.1+  0.3+
    130831 F51  0.3+  0.1+    140803 F51  0.1-  0.1-    150712 F51  0.1-  0.1-
    130831 F51  0.0   0.3-    140803 F51  0.1-  0.0     150712 F51  0.0   0.0
    130831 F51  0.2+  0.2-    140919 F51  0.1-  0.0
    
    Ephemeris:
    2014 OA394               a,e,i = 46.42, 0.18, 4                  q = 38.046
    Date    TT    R. A. (2000) Decl.     Delta      r     Elong.  Phase     V
    2016 06 16    22 23 37.8 -11 56 52  37.8734 38.2611   111.7     1.4    22.5
    ...
    2016 07 01    22 23 11.7 -11 59 43  37.6545 38.2630   126.1     1.2    22.5
    ...
    2016 07 09    22 22 49.9 -12 01 57  37.5525 38.2640   133.9     1.1    22.5
    ...
    2016 07 15    22 22 30.5 -12 03 53  37.4843 38.2647   139.7     1.0    22.4
    2016 07 16    22 22 27.0 -12 04 14  37.4737 38.2649   140.6     1.0    22.4
    2016 07 17    22 22 23.4 -12 04 35  37.4633 38.2650   141.6     0.9    22.4
    ...
    2016 07 23    22 22 00.8 -12 06 47  37.4059 38.2658   147.4     0.8    22.4
    ...
    2016 07 31    22 21 27.4 -12 09 59  37.3430 38.2668   155.2     0.6    22.4
    ...
    2016 08 15    22 20 17.8 -12 16 29  37.2716 38.2687   169.8     0.3    22.3
    
    A. U. Tomatic                (C) Copyright 2016 MPC           M.P.E.C. 2016-O52
    

    Read MPEC 2016-O51 Read MPEC 2016-O53


    MPEC number:

    Enter an MPEC number in one of the following forms:

    • 1997-B01 (the full form)
    • J97B01 (the packed version of the full form)
    • B01 (the abbreviated form)